TimeEDT,TemperatureF,Dew PointF,Humidity,Sea Level PressureIn,VisibilityMPH,Wind Direction,Wind SpeedMPH,Gust SpeedMPH,PrecipitationIn,Events,Conditions,WindDirDegrees,DateUTC
1:54 AM,69.1,62.1,78,29.90,10.0,SW,6.9,-,N/A,,Scattered Clouds,220,2013-08-13 05:54:00
2:54 AM,69.1,61.0,75,29.89,10.0,SW,4.6,-,N/A,,Mostly Cloudy,230,2013-08-13 06:54:00
3:54 AM,68.0,61.0,78,29.88,10.0,South,4.6,-,N/A,,Overcast,190,2013-08-13 07:54:00
4:54 AM,66.9,61.0,81,29.87,10.0,South,6.9,-,N/A,,Overcast,190,2013-08-13 08:54:00
5:54 AM,66.9,61.0,81,29.86,10.0,South,4.6,-,N/A,,Overcast,180,2013-08-13 09:54:00
6:54 AM,68.0,60.1,76,29.86,10.0,South,3.5,-,N/A,,Overcast,190,2013-08-13 10:54:00
7:54 AM,69.1,61.0,75,29.85,10.0,SSW,3.5,-,N/A,,Overcast,200,2013-08-13 11:54:00
8:54 AM,69.1,62.1,78,29.84,10.0,South,4.6,-,N/A,,Overcast,180,2013-08-13 12:54:00
9:54 AM,70.0,64.9,84,29.84,8.0,South,6.9,-,N/A,,Overcast,170,2013-08-13 13:54:00
10:54 AM,70.0,64.9,84,29.84,8.0,SSE,4.6,-,0.00,,Overcast,160,2013-08-13 14:54:00
11:54 AM,73.0,64.9,76,29.83,10.0,SSW,4.6,-,0.00,,Overcast,200,2013-08-13 15:54:00
12:54 PM,72.0,64.9,78,29.83,8.0,South,6.9,-,0.00,Rain,Light Rain,180,2013-08-13 16:54:00
1:54 PM,69.1,64.9,87,29.80,8.0,South,9.2,-,0.00,Rain,Light Rain,170,2013-08-13 17:54:00
2:54 PM,70.0,64.0,81,29.76,10.0,SE,3.5,-,0.00,,Mostly Cloudy,140,2013-08-13 18:54:00
3:54 PM,71.1,64.9,81,29.75,10.0,SE,4.6,-,N/A,,Mostly Cloudy,140,2013-08-13 19:54:00
4:54 PM,73.0,64.9,76,29.73,10.0,SE,4.6,-,N/A,,Mostly Cloudy,130,2013-08-13 20:54:00
5:54 PM,72.0,64.9,78,29.71,10.0,East,6.9,-,N/A,,Mostly Cloudy,80,2013-08-13 21:54:00
6:54 PM,70.0,64.0,81,29.70,10.0,ESE,5.8,-,N/A,,Scattered Clouds,110,2013-08-13 22:54:00
7:54 PM,68.0,62.1,81,29.70,10.0,ESE,5.8,-,N/A,,Scattered Clouds,120,2013-08-13 23:54:00
8:54 PM,66.0,62.1,87,29.71,10.0,East,3.5,-,N/A,,Mostly Cloudy,90,2013-08-14 00:54:00
9:54 PM,66.9,63.0,87,29.72,10.0,South,5.8,-,N/A,,Scattered Clouds,180,2013-08-14 01:54:00
10:54 PM,68.0,62.1,81,29.71,10.0,SSW,4.6,-,N/A,,Scattered Clouds,200,2013-08-14 02:54:00
11:54 PM,68.0,62.1,81,29.69,10.0,SW,5.8,-,N/A,,Scattered Clouds,230,2013-08-14 03:54:00